Regional Weather Roundup
Issued by NWS Albany, NY

Current Version | Previous Version | Graphics & Text | Print | Product List | Glossary Off
Versions: 1 2 3 4 5 6 7 8 9 10 11 12 13 14 15 16 17 18 19 20 21 22 23 24 25 26 27 28 29 30 31 32 33 34 35 36 37 38 39 40 41 42 43 44 45 46 47 48 49 50

252
ASUS41 KALY 251410
RWRALY

NEW YORK STATE HOURLY WEATHER ROUNDUP
NATIONAL WEATHER SERVICE ALBANY NY
1000 AM EDT THU AUG 25 2016

NOTE: "FAIR" INDICATES FEW OR NO CLOUDS BELOW 12,000 FEET WITH NO
SIGNIFICANT WEATHER AND/OR NO OBSTRUCTIONS TO VISIBILITY.

NYZ032-033-038>043-046>054-057>066-NYZ062>081-082-084-251500-
EAST


CITY           SKY/WX    TMP DP  RH WIND       PRES   REMARKS
ALBANY         CLOUDY    73  64  73 S13       30.03F
GLENS FALLS    CLOUDY    72  65  78 S6        30.02F
POUGHKEEPSIE   MOSUNNY   78  63  59 SW6       30.07F
NEWBURGH       PTSUNNY   75  66  73 W9        30.11F
MONTGOMERY     CLOUDY    75  66  73 SW12      30.07F
WHITE PLAINS   SUNNY     77  64  64 SW7       30.11F
ISLIP          PTSUNNY   78  65  63 SW14      30.12F
NEW YORK CITY  PTSUNNY   80  62  54 S13       30.10F
CENTRAL PARK     N/A     79  64  61 MISG        N/A
$$

NYZ005>009-017-018-044>046-055-056-251500-
CENTRAL


CITY           SKY/WX    TMP DP  RH WIND       PRES   REMARKS
FULTON         CLOUDY    72  68  87 S7        29.96F
SYRACUSE       CLOUDY    73  69  87 S5        29.96S
ROME           LGT RAIN  72  68  87 E5        30.00S
ELMIRA         CLOUDY    74  67  78 N5        30.01S
BINGHAMTON     CLOUDY    68  65  90 S7        30.05F
MONTICELLO     PTSUNNY   72  64  78 MISG      30.12F
$$

NYZ026>034-041>043-087-251500-
NORTH


CITY           SKY/WX    TMP DP  RH WIND       PRES   REMARKS
WATERTOWN      CLOUDY    72  67  84 S10       29.93S
FORT DRUM      NOT AVBL
MASSENA        LGT RAIN  75  65  70 SW13      29.91S
SARANAC LAKE   CLOUDY    73  63  70 SW13G22   29.99F
PLATTSBURGH    CLOUDY    71  65  81 SE10      29.94F
$$

NYZ001>004-010>016-019>021-085-251500-
WEST


CITY           SKY/WX    TMP DP  RH WIND       PRES   REMARKS
NIAGARA FALLS  CLOUDY    79  71  76 W13       29.96R
BUFFALO        CLOUDY    73  72  96 SW10      29.96S
DUNKIRK        CLOUDY    77  75  93 SW7       29.99S
JAMESTOWN      CLOUDY    72  68  88 W9        30.05R
WELLSVILLE     LGT RAIN  71  68  90 SW7       30.07R FOG
ROCHESTER      CLOUDY    74  70  87 SW10      29.96S
PENN YAN       CLOUDY    73  68  84 SW10      30.00S
$$

             KEY
       WCI = WIND CHILL INDEX
       VSB = VISIBILITY
       HX  = HEAT INDEX
$$




USA.gov is the U.S. government's official web portal to all federal, state and local government web resources and services.